{"data":{"norad_id":64188,"intl_designator":"2025-113U","name":"STARLINK-33929","alt_names":[],"object_type":"PAYLOAD","status":"ACTIVE","operator":null,"country":"US","launch_date":"2025-05-28","launch_site_code":"AFETR","launch_vehicle":null,"mission":null,"orbit_class":"UNKNOWN","rcs_meters":null,"size_class":null,"mass_kg":null,"dimensions":null,"purposes":["comms"],"wikipedia_slug":null,"has_3d_model":false,"image_url":null,"decayed_at":null,"tle_current":{"epoch":"2026-05-25T02:28:02.523072Z","epoch_age_seconds":62195,"freshness":"FRESH","line1":"1 64188U 25113U   26145.10280698  .00011647  00000+0  40449-3 0  9993","line2":"2 64188  53.1586  96.2407 0001680 151.2182 208.8912 15.30221376 56764","mean_motion":15.30221376,"eccentricity":0.000168,"inclination_deg":53.1586,"raan_deg":96.2407,"arg_perigee_deg":151.2182,"mean_anomaly_deg":208.8912,"bstar":0.00040449,"rev_number":5676,"period_min":94.104031128108,"perigee_km":473.99989285415,"apogee_km":476.30259770457,"semimajor_km":6853.2882452794,"source":"CELESTRAK","updated_at":"2026-05-25T13:38:20.313573Z"}}}